Weather History for Owatonna, MN

Change the Weather History Date:

Thursday, November 15, 2012

  Actual Average Record
Temperature  
Mean Temperature 42 °F -  
Max Temperature 55 °F 43 °F 70 °F (1990)
Min Temperature 30 °F 24 °F 3 °F (2014)
Degree Days  
Heating Degree Days 22    
Moisture  
Dew Point 26 °F    
Average Humidity 52    
Maximum Humidity 70    
Minimum Humidity 35    
Precipitation  
Precipitation 0.00 in - - ()
Sea Level Pressure  
Sea Level Pressure 30.24 in    
Wind  
Wind Speed 10 mph (WSW)    
Max Wind Speed 15 mph    
Max Gust Speed 18 mph    
Visibility 10 miles    
Events      
Averages and records for this station are not official NWS values.
T = Trace of Precipitation, MM = Missing Value Source: NWS Daily Summary

Daily Weather History Graph

Daily Weather History Graph

Search for Another Location

Airport:

Trip Planner

Search our weather history database for the weather conditions in past years. The results will help you decide how hot, cold, wet, or windy it might be!

Date:

Astronomy

Nov. 15, 2012 Rise Set
Actual Time 7:09 AM CST 4:45 PM CST
Civil Twilight 6:37 AM CST 5:17 PM CST
Nautical Twilight 6:02 AM CST 5:52 PM CST
Astronomical Twilight 5:28 AM CST 6:26 PM CST
Moon 9:07 AM CST (11/15) 6:35 PM CST (11/15)
Length of Visible Light 10h 39m
Length of Day
9h 36m
Waxing Crescent, 5% of the Moon is Illuminated
Nov 15
Waxing Crescent
Nov 20
First Quarter
Nov 28
Full
Dec 6
Last Quarter
Dec 13
New

Hourly Weather History & Observations

Time (CST) Temp. Windchill Dew Point Humidity Pressure Visibility Wind Dir Wind Speed Gust Speed Precip Events Conditions
12:13 AM 44.6 °F 38.8 °F 26.6 °F 49% 30.16 in 10.0 mi South 11.5 mph - N/A   Scattered Clouds
12:34 AM 44.6 °F 38.8 °F 26.6 °F 49% 30.16 in 10.0 mi South 11.5 mph - N/A   Scattered Clouds
12:54 AM 44.6 °F 38.4 °F 26.6 °F 49% 30.15 in 10.0 mi South 12.7 mph 17.3 mph N/A   Scattered Clouds
1:14 AM 46.4 °F 41.5 °F 26.6 °F 46% 30.15 in 10.0 mi South 10.4 mph - N/A   Scattered Clouds
1:33 AM 44.6 °F 38.8 °F 26.6 °F 49% 30.15 in 10.0 mi South 11.5 mph - N/A   Clear
1:53 AM 44.6 °F 38.1 °F 26.6 °F 49% 30.14 in 10.0 mi SSE 13.8 mph - N/A   Scattered Clouds
2:14 AM 44.6 °F 38.1 °F 26.6 °F 49% 30.14 in 10.0 mi SSE 13.8 mph 18.4 mph N/A   Mostly Cloudy
2:34 AM 44.6 °F 38.8 °F 26.6 °F 49% 30.14 in 10.0 mi SSE 11.5 mph - N/A   Scattered Clouds
2:54 AM 44.6 °F 38.8 °F 26.6 °F 49% 30.14 in 10.0 mi SSE 11.5 mph - N/A   Scattered Clouds
3:14 AM 44.6 °F 38.4 °F 26.6 °F 49% 30.14 in 10.0 mi SSE 12.7 mph - N/A   Scattered Clouds
3:34 AM 44.6 °F 38.4 °F 26.6 °F 49% 30.13 in 10.0 mi SSE 12.7 mph - N/A   Scattered Clouds
3:53 AM 44.6 °F 38.4 °F 26.6 °F 49% 30.13 in 10.0 mi South 12.7 mph - N/A   Mostly Cloudy
4:13 AM 44.6 °F 38.8 °F 26.6 °F 49% 30.13 in 10.0 mi South 11.5 mph - N/A   Mostly Cloudy
4:34 AM 44.6 °F 38.4 °F 24.8 °F 46% 30.13 in 10.0 mi South 12.7 mph - N/A   Mostly Cloudy
4:53 AM 42.8 °F 36.6 °F 26.6 °F 53% 30.13 in 10.0 mi South 11.5 mph - N/A   Mostly Cloudy
5:14 AM 42.8 °F 37.0 °F 26.6 °F 53% 30.13 in 10.0 mi South 10.4 mph - N/A   Mostly Cloudy
5:34 AM 42.8 °F 37.0 °F 26.6 °F 53% 30.14 in 10.0 mi SSE 10.4 mph - N/A   Mostly Cloudy
5:54 AM 41.0 °F 35.2 °F 26.6 °F 57% 30.14 in 10.0 mi SSE 9.2 mph - N/A   Scattered Clouds
6:13 AM 41.0 °F 34.7 °F 26.6 °F 57% 30.13 in 10.0 mi SSE 10.4 mph - N/A   Scattered Clouds
6:33 AM 39.2 °F 33.6 °F 26.6 °F 61% 30.14 in 10.0 mi South 8.1 mph - N/A   Clear
6:53 AM 39.2 °F 33.0 °F 26.6 °F 61% 30.15 in 10.0 mi South 9.2 mph - N/A   Clear
7:13 AM 39.2 °F 33.6 °F 26.6 °F 61% 30.16 in 10.0 mi South 8.1 mph - N/A   Clear
7:34 AM 39.2 °F 33.6 °F 26.6 °F 61% 30.16 in 10.0 mi South 8.1 mph - N/A   Clear
7:53 AM 39.2 °F 33.6 °F 26.6 °F 61% 30.17 in 10.0 mi South 8.1 mph - N/A   Clear
8:13 AM 39.2 °F 34.2 °F 28.4 °F 65% 30.18 in 10.0 mi SSW 6.9 mph - N/A   Clear
8:33 AM 41.0 °F 35.2 °F 28.4 °F 61% 30.18 in 10.0 mi SW 9.2 mph - N/A   Clear
8:53 AM 42.8 °F 38.0 °F 28.4 °F 57% 30.18 in 10.0 mi SW 8.1 mph - N/A   Clear
9:14 AM 42.8 °F 37.0 °F 28.4 °F 57% 30.19 in 10.0 mi SW 10.4 mph - N/A   Clear
9:34 AM 44.6 °F 40.2 °F 28.4 °F 53% 30.20 in 10.0 mi WSW 8.1 mph - N/A   Clear
9:53 AM 44.6 °F 39.7 °F 28.4 °F 53% 30.21 in 10.0 mi WSW 9.2 mph - N/A   Clear
10:13 AM 44.6 °F 39.7 °F 28.4 °F 53% 30.21 in 10.0 mi West 9.2 mph - N/A   Clear
10:33 AM 46.4 °F 42.9 °F 28.4 °F 50% 30.22 in 10.0 mi West 6.9 mph - N/A   Clear
10:53 AM 46.4 °F 42.9 °F 28.4 °F 50% 30.22 in 10.0 mi West 6.9 mph - N/A   Clear
11:13 AM 48.2 °F - 28.4 °F 46% 30.22 in 10.0 mi West 6.9 mph - N/A   Clear
11:34 AM 48.2 °F - 28.4 °F 46% 30.22 in 10.0 mi West 9.2 mph - N/A   Clear
11:54 AM 50.0 °F - 28.4 °F 43% 30.22 in 10.0 mi WNW 10.4 mph - N/A   Clear
12:13 PM 51.8 °F - 28.4 °F 41% 30.23 in 10.0 mi WNW 11.5 mph - N/A   Clear
12:33 PM 51.8 °F - 30.2 °F 44% 30.22 in 10.0 mi NW 9.2 mph - N/A   Clear
12:53 PM 53.6 °F - 28.4 °F 38% 30.22 in 10.0 mi WNW 12.7 mph - N/A   Clear
1:14 PM 53.6 °F - 28.4 °F 38% 30.22 in 10.0 mi NW 12.7 mph 16.1 mph N/A   Clear
1:34 PM 53.6 °F - 28.4 °F 38% 30.23 in 10.0 mi WNW 10.4 mph - N/A   Clear
1:53 PM 55.4 °F - 28.4 °F 36% 30.23 in 10.0 mi NW 11.5 mph - N/A   Clear
2:14 PM 55.4 °F - 28.4 °F 36% 30.23 in 10.0 mi NW 11.5 mph - N/A   Clear
2:33 PM 55.4 °F - 28.4 °F 36% 30.23 in 10.0 mi NW 12.7 mph - N/A   Clear
2:54 PM 53.6 °F - 26.6 °F 35% 30.25 in 10.0 mi NW 15.0 mph - N/A   Clear
3:14 PM 53.6 °F - 28.4 °F 38% 30.25 in 10.0 mi WNW 12.7 mph 18.4 mph N/A   Clear
3:34 PM 53.6 °F - 28.4 °F 38% 30.26 in 10.0 mi WNW 12.7 mph - N/A   Clear
3:54 PM 51.8 °F - 28.4 °F 41% 30.27 in 10.0 mi NW 10.4 mph - N/A   Clear
4:14 PM 50.0 °F - 30.2 °F 47% 30.28 in 10.0 mi NW 10.4 mph - N/A   Clear
4:33 PM 48.2 °F - 30.2 °F 50% 30.29 in 10.0 mi WNW 9.2 mph - N/A   Clear
4:54 PM 44.6 °F 40.2 °F 28.4 °F 53% 30.30 in 10.0 mi WNW 8.1 mph - N/A   Clear
5:14 PM 42.8 °F 38.0 °F 28.4 °F 57% 30.31 in 10.0 mi WNW 8.1 mph - N/A   Clear
5:34 PM 44.6 °F 40.2 °F 28.4 °F 53% 30.32 in 10.0 mi WNW 8.1 mph - N/A   Clear
5:54 PM 42.8 °F 38.0 °F 28.4 °F 57% 30.33 in 10.0 mi WNW 8.1 mph - N/A   Clear
6:13 PM 39.2 °F 35.0 °F 28.4 °F 65% 30.33 in 10.0 mi WNW 5.8 mph - N/A   Clear
6:34 PM 37.4 °F 32.8 °F 26.6 °F 65% 30.34 in 10.0 mi NW 5.8 mph - N/A   Clear
6:53 PM 35.6 °F 29.9 °F 24.8 °F 65% 30.35 in 10.0 mi NW 6.9 mph - N/A   Clear
7:33 PM 35.6 °F 31.7 °F 24.8 °F 65% 30.37 in 10.0 mi NW 4.6 mph - N/A   Clear
7:54 PM 33.8 °F 30.8 °F 24.8 °F 70% 30.37 in 10.0 mi NW 3.5 mph - N/A   Clear
8:13 PM 33.8 °F - 24.8 °F 70% 30.37 in 10.0 mi Calm Calm - N/A   Clear
8:34 PM 33.8 °F - 23.0 °F 65% 30.38 in 10.0 mi Calm Calm - N/A   Clear
8:54 PM 33.8 °F - 21.2 °F 60% 30.38 in 10.0 mi Calm Calm - N/A   Clear
9:14 PM 33.8 °F 30.8 °F 19.4 °F 56% 30.39 in 10.0 mi NNW 3.5 mph - N/A   Clear
9:34 PM 33.8 °F 29.6 °F 17.6 °F 52% 30.40 in 10.0 mi NNW 4.6 mph - N/A   Clear
9:54 PM 32.0 °F 27.5 °F 17.6 °F 55% 30.40 in 10.0 mi NNW 4.6 mph - N/A   Clear
10:13 PM 30.2 °F 25.4 °F 17.6 °F 60% 30.41 in 10.0 mi NW 4.6 mph - N/A   Clear
10:33 PM 30.2 °F 26.7 °F 17.6 °F 60% 30.41 in 10.0 mi NW 3.5 mph - N/A   Clear
10:53 PM 30.2 °F - 17.6 °F 60% 30.41 in 10.0 mi Calm Calm - N/A   Clear
11:14 PM 30.2 °F - 17.6 °F 60% 30.42 in 10.0 mi Calm Calm - N/A   Clear
11:34 PM 30.2 °F - 17.6 °F 60% 30.42 in 10.0 mi Calm Calm - N/A   Clear
11:54 PM 30.2 °F - 15.8 °F 55% 30.43 in 10.0 mi Calm Calm - N/A   Clear